Voltar ao catálogo

STARLINK-31543

AtivoComunicaçõesVLEO
NORAD 59402·PAYLOAD·🇺🇸 United States

Lançado Apr 5, 2024 de Cape Canaveral Space Force Station

Loading…

Próximas Passagens (próximas 24 horas)

TLE

AtualizadoSource: CelesTrak SupGP

Época: Sep 15, 2026, 02:48 UTC

1 59402C 24064E   26258.11715278 -.00022517  00000+0 -81548-3 0  2586
2 59402  43.0030  66.5911 0001171 267.0069 101.5381 15.27592572    15

Acompanhe STARLINK-31543 em tempo real com AllMySat

Download on the App Store